Airfield :
LOGIN :

Register | Disclaimer

   EN    FR    IT 

 










Legend :    VFR   Marginal VFR   IFR   Intensive IFR   Very Intensive IFR
Visi :
Ceiling :
>= 8 km
>= 3000ft
5 to 8 km
1000 to 3000 ft
1500m to 5 km
500 to 1000 ft
800 to 1500m
200 to 500 ft
< 800m
< 200 ft
Symbols :   Thunderstorms  Fog  Heavy snow  Heavy precipitations  Wind > 20 kt
SIGMETs :     Misc.  Thunderstorms  Icing  Turbulence  Mountain Waves  Volcanic Ashes







- Airport Elevation : 294 ft
- IATA code : NAP


LIRN - Naples Capodichino

CURRENT METAR :
  • 210250Z 31004KT CAVOK 20/12 Q1011 NOSIG

EXPIRED METARs :
  • 210220Z 32004KT 290V350 CAVOK 20/12 Q1011 NOSIG
  • 210150Z 02006KT CAVOK 20/12 Q1011 NOSIG
  • 210120Z 36006KT CAVOK 21/12 Q1011 NOSIG
  • 210050Z 36006KT CAVOK 20/12 Q1012 NOSIG
  • 210020Z 01004KT CAVOK 21/12 Q1012 NOSIG

TAF TAF LIRN
Valid from the 21 at 00:00 until the 22 at 00:00 UTC


202300Z 2100/2124 VRB05KT 9999 SCT030
TEMPO 2109/2115 4000 SHRA
BECMG 2110/2112 23010KT
BECMG 2118/2120 VRB05KT
No reported NOTAMs for that airfield.



MET'MAP, your aeronautical weather chart ! - Copyright ORBIFLY December 2007 - Disclaimer

ORBIFLY MET'MAP TEAM :

Programming & Development : Alexandra Zaïnal
Concept & Development : Baudouin d'Aumeries
Co-Development & Prog : Marc-Olivier Méhu
Technical & hardware support : Manuel Goepfert

Contact : metmap@orbifly.com




SOURCES & CREDITS :

   NOAA